Year,Month,Day,Hour,Minute,Value (Times are PST for temperature in C)
2018,07,21,00,00,13.30
2018,07,21,00,01,13.30
2018,07,21,00,02,13.30
2018,07,21,00,03,13.20
2018,07,21,00,04,13.20
2018,07,21,00,05,13.20
2018,07,21,00,06,13.20
2018,07,21,00,07,13.20
2018,07,21,00,08,13.20
2018,07,21,00,09,13.10
2018,07,21,00,10,13.10
2018,07,21,00,11,13.10
2018,07,21,00,12,13.10
2018,07,21,00,13,13.10
2018,07,21,00,14,13.10
2018,07,21,00,15,13.10
2018,07,21,00,16,13.10
2018,07,21,00,17,13.10
2018,07,21,00,18,13.00
2018,07,21,00,19,13.00
2018,07,21,00,20,13.00
2018,07,21,00,21,13.00
2018,07,21,00,22,13.00
2018,07,21,00,23,12.90
2018,07,21,00,24,12.90
2018,07,21,00,25,12.90
2018,07,21,00,26,12.90
2018,07,21,00,27,12.80
2018,07,21,00,28,12.80
2018,07,21,00,29,12.80
2018,07,21,00,30,12.80
2018,07,21,00,31,12.80
2018,07,21,00,32,12.80
2018,07,21,00,33,12.80
2018,07,21,00,34,12.80
2018,07,21,00,35,12.70
2018,07,21,00,36,12.70
2018,07,21,00,37,12.70
2018,07,21,00,38,12.70
2018,07,21,00,39,12.70
2018,07,21,00,40,12.70
2018,07,21,00,41,12.60
2018,07,21,00,42,12.60
2018,07,21,00,43,12.60
2018,07,21,00,44,12.60
2018,07,21,00,45,12.60
2018,07,21,00,46,12.50
2018,07,21,00,47,12.50
2018,07,21,00,48,12.50
2018,07,21,00,49,12.50
2018,07,21,00,50,12.50
2018,07,21,00,51,12.40
2018,07,21,00,52,12.40
2018,07,21,00,53,12.40
2018,07,21,00,54,12.40
2018,07,21,00,55,12.30
2018,07,21,00,56,12.30
2018,07,21,00,57,12.30
2018,07,21,00,58,12.30
2018,07,21,00,59,12.30
2018,07,21,01,00,12.30
2018,07,21,01,01,12.30
2018,07,21,01,02,12.30
2018,07,21,01,03,12.30
2018,07,21,01,04,12.20
2018,07,21,01,05,12.20
2018,07,21,01,06,12.20
2018,07,21,01,07,12.20
2018,07,21,01,08,12.20
2018,07,21,01,09,12.10
2018,07,21,01,10,12.10
2018,07,21,01,11,12.10
2018,07,21,01,12,12.00
2018,07,21,01,13,12.00
2018,07,21,01,14,12.00
2018,07,21,01,15,12.00
2018,07,21,01,16,11.90
2018,07,21,01,17,11.90
2018,07,21,01,18,11.90
2018,07,21,01,19,11.80
2018,07,21,01,20,11.80
2018,07,21,01,21,11.80
2018,07,21,01,22,11.80
2018,07,21,01,23,11.80
2018,07,21,01,24,11.80
2018,07,21,01,25,11.80
2018,07,21,01,26,11.80
2018,07,21,01,27,11.80
2018,07,21,01,28,11.80
2018,07,21,01,29,11.80
2018,07,21,01,30,11.80
2018,07,21,01,31,11.80
2018,07,21,01,32,11.80
2018,07,21,01,33,11.80
2018,07,21,01,34,11.80
2018,07,21,01,35,11.80
2018,07,21,01,36,11.80
2018,07,21,01,37,11.80
2018,07,21,01,38,11.80
2018,07,21,01,39,11.80
2018,07,21,01,40,11.80
2018,07,21,01,41,11.80
2018,07,21,01,42,11.80
2018,07,21,01,43,11.80
2018,07,21,01,44,11.80
2018,07,21,01,45,11.70
2018,07,21,01,46,11.70
2018,07,21,01,47,11.70
2018,07,21,01,48,11.70
2018,07,21,01,49,11.70
2018,07,21,01,50,11.70
2018,07,21,01,51,11.70
2018,07,21,01,52,11.60
2018,07,21,01,53,11.60
2018,07,21,01,54,11.60
2018,07,21,01,55,11.60
2018,07,21,01,56,11.60
2018,07,21,01,57,11.60
2018,07,21,01,58,11.60
2018,07,21,01,59,11.60
2018,07,21,02,00,11.50
2018,07,21,02,01,11.40
2018,07,21,02,02,11.40
2018,07,21,02,03,11.40
2018,07,21,02,04,11.40
2018,07,21,02,05,11.40
2018,07,21,02,06,11.40
2018,07,21,02,07,11.40
2018,07,21,02,08,11.40
2018,07,21,02,09,11.40
2018,07,21,02,10,11.40
2018,07,21,02,11,11.40
2018,07,21,02,12,11.40
2018,07,21,02,13,11.30
2018,07,21,02,14,11.30
2018,07,21,02,15,11.30
2018,07,21,02,16,11.30
2018,07,21,02,17,11.30
2018,07,21,02,18,11.30
2018,07,21,02,19,11.30
2018,07,21,02,20,11.30
2018,07,21,02,21,11.30
2018,07,21,02,22,11.30
2018,07,21,02,23,11.30
2018,07,21,02,24,11.30
2018,07,21,02,25,11.30
2018,07,21,02,26,11.30
2018,07,21,02,27,11.20
2018,07,21,02,28,11.20
2018,07,21,02,29,11.20
2018,07,21,02,30,11.20
2018,07,21,02,31,11.20
2018,07,21,02,32,11.20
2018,07,21,02,33,11.20
2018,07,21,02,34,11.20
2018,07,21,02,35,11.20
2018,07,21,02,36,11.20
2018,07,21,02,37,11.20
2018,07,21,02,38,11.10
2018,07,21,02,39,11.10
2018,07,21,02,40,11.10
2018,07,21,02,41,11.10
2018,07,21,02,42,11.10
2018,07,21,02,43,11.10
2018,07,21,02,44,11.10
2018,07,21,02,45,11.10
2018,07,21,02,46,11.10
2018,07,21,02,47,11.10
2018,07,21,02,48,11.10
2018,07,21,02,49,11.10
2018,07,21,02,50,11.10
2018,07,21,02,51,11.20
2018,07,21,02,52,11.20
2018,07,21,02,53,11.20
2018,07,21,02,54,11.20
2018,07,21,02,55,11.20
2018,07,21,02,56,11.20
2018,07,21,02,57,11.20
2018,07,21,02,58,11.20
2018,07,21,02,59,11.20
2018,07,21,03,00,11.20
2018,07,21,03,01,11.20
2018,07,21,03,02,11.20
2018,07,21,03,03,11.20
2018,07,21,03,04,11.20
2018,07,21,03,05,11.20
2018,07,21,03,06,11.20
2018,07,21,03,07,11.20
2018,07,21,03,08,11.20
2018,07,21,03,09,11.20
2018,07,21,03,10,11.30
2018,07,21,03,11,11.30
2018,07,21,03,12,11.30
2018,07,21,03,13,11.30
2018,07,21,03,14,11.30
2018,07,21,03,15,11.30
2018,07,21,03,16,11.30
2018,07,21,03,17,11.40
2018,07,21,03,18,11.40
2018,07,21,03,19,11.40
2018,07,21,03,20,11.40
2018,07,21,03,21,11.40
2018,07,21,03,22,11.40
2018,07,21,03,23,11.40
2018,07,21,03,24,11.30
2018,07,21,03,25,11.30
2018,07,21,03,26,11.30
2018,07,21,03,27,11.30
2018,07,21,03,28,11.30
2018,07,21,03,29,11.30
2018,07,21,03,30,11.30
2018,07,21,03,31,11.30
2018,07,21,03,32,11.30
2018,07,21,03,33,11.30
2018,07,21,03,34,11.30
2018,07,21,03,35,11.30
2018,07,21,03,36,11.30
2018,07,21,03,37,11.30
2018,07,21,03,38,11.30
2018,07,21,03,39,11.30
2018,07,21,03,40,11.30
2018,07,21,03,41,11.20
2018,07,21,03,42,11.20
2018,07,21,03,43,11.20
2018,07,21,03,44,11.20
2018,07,21,03,45,11.20
2018,07,21,03,46,11.20
2018,07,21,03,47,11.20
2018,07,21,03,48,11.20
2018,07,21,03,49,11.20
2018,07,21,03,50,11.20
2018,07,21,03,51,11.10
2018,07,21,03,52,11.10
2018,07,21,03,53,11.10
2018,07,21,03,54,11.10
2018,07,21,03,55,11.10
2018,07,21,03,56,11.10
2018,07,21,03,57,11.10
2018,07,21,03,58,11.10
2018,07,21,03,59,11.10
2018,07,21,04,00,11.10
2018,07,21,04,01,11.10
2018,07,21,04,02,11.10
2018,07,21,04,03,11.10
2018,07,21,04,04,11.10
2018,07,21,04,05,11.10
2018,07,21,04,06,11.10
2018,07,21,04,07,11.10
2018,07,21,04,08,11.10
2018,07,21,04,09,11.10
2018,07,21,04,10,11.10
2018,07,21,04,11,11.10
2018,07,21,04,12,11.10
2018,07,21,04,13,11.10
2018,07,21,04,14,11.10
2018,07,21,04,15,11.20
2018,07,21,04,16,11.20
2018,07,21,04,17,11.20
2018,07,21,04,18,11.30
2018,07,21,04,19,11.30
2018,07,21,04,20,11.30
2018,07,21,04,21,11.40
2018,07,21,04,22,11.40
2018,07,21,04,23,11.40
2018,07,21,04,24,11.40
2018,07,21,04,25,11.40
2018,07,21,04,26,11.40
2018,07,21,04,27,11.40
2018,07,21,04,28,11.40
2018,07,21,04,29,11.40
2018,07,21,04,30,11.40
2018,07,21,04,31,11.40
2018,07,21,04,32,11.40
2018,07,21,04,33,11.40
2018,07,21,04,34,11.40
2018,07,21,04,35,11.40
2018,07,21,04,36,11.40
2018,07,21,04,37,11.40
2018,07,21,04,38,11.40
2018,07,21,04,39,11.30
2018,07,21,04,40,11.30
2018,07,21,04,41,11.30
2018,07,21,04,42,11.30
2018,07,21,04,43,11.20
2018,07,21,04,44,11.20
2018,07,21,04,45,11.20
2018,07,21,04,46,11.20
2018,07,21,04,47,11.20
2018,07,21,04,48,11.10
2018,07,21,04,49,11.10
2018,07,21,04,50,11.10
2018,07,21,04,51,11.10
2018,07,21,04,52,11.10
2018,07,21,04,53,11.10
2018,07,21,04,54,11.10
2018,07,21,04,55,11.10
2018,07,21,04,56,11.00
2018,07,21,04,57,10.90
2018,07,21,04,58,10.90
2018,07,21,04,59,10.90
2018,07,21,05,00,10.90
2018,07,21,05,01,10.90
2018,07,21,05,02,10.90
2018,07,21,05,03,10.90
2018,07,21,05,04,10.80
2018,07,21,05,05,10.80
2018,07,21,05,06,10.80
2018,07,21,05,07,10.70
2018,07,21,05,08,10.70
2018,07,21,05,09,10.70
2018,07,21,05,10,10.70
2018,07,21,05,11,10.60
2018,07,21,05,12,10.60
2018,07,21,05,13,10.60
2018,07,21,05,14,10.60
2018,07,21,05,15,10.60
2018,07,21,05,16,10.60
2018,07,21,05,17,10.50
2018,07,21,05,18,10.40
2018,07,21,05,19,10.40
2018,07,21,05,20,10.40
2018,07,21,05,21,10.40
2018,07,21,05,22,10.40
2018,07,21,05,23,10.40
2018,07,21,05,24,10.40
2018,07,21,05,25,10.30
2018,07,21,05,26,10.30
2018,07,21,05,27,10.30
2018,07,21,05,28,10.30
2018,07,21,05,29,10.30
2018,07,21,05,30,10.30
2018,07,21,05,31,10.30
2018,07,21,05,32,10.20
2018,07,21,05,33,10.20
2018,07,21,05,34,10.20
2018,07,21,05,35,10.20
2018,07,21,05,36,10.10
2018,07,21,05,37,10.10
2018,07,21,05,38,10.10
2018,07,21,05,39,10.00
2018,07,21,05,40,9.90
2018,07,21,05,41,9.90
2018,07,21,05,42,9.90
2018,07,21,05,43,9.90
2018,07,21,05,44,9.80
2018,07,21,05,45,9.80
2018,07,21,05,46,9.80
2018,07,21,05,47,9.80
2018,07,21,05,48,9.80
2018,07,21,05,49,9.80
2018,07,21,05,50,9.80
2018,07,21,05,51,9.80
2018,07,21,05,52,9.70
2018,07,21,05,53,9.70
2018,07,21,05,54,9.70
2018,07,21,05,55,9.70
2018,07,21,05,56,9.70
2018,07,21,05,57,9.70
2018,07,21,05,58,9.70
2018,07,21,05,59,9.70
2018,07,21,06,00,9.70
2018,07,21,06,01,9.70
2018,07,21,06,02,9.70
2018,07,21,06,03,9.70
2018,07,21,06,04,9.70
2018,07,21,06,05,9.80
2018,07,21,06,06,9.70
2018,07,21,06,07,9.80
2018,07,21,06,08,9.80
2018,07,21,06,09,9.80
2018,07,21,06,10,9.80
2018,07,21,06,11,9.80
2018,07,21,06,12,9.80
2018,07,21,06,13,9.90
2018,07,21,06,14,9.90
2018,07,21,06,15,9.90
2018,07,21,06,16,9.90
2018,07,21,06,17,10.00
2018,07,21,06,18,10.10
2018,07,21,06,19,10.10
2018,07,21,06,20,10.10
2018,07,21,06,21,10.10
2018,07,21,06,22,10.10
2018,07,21,06,23,10.10
2018,07,21,06,24,10.10
2018,07,21,06,25,10.10
2018,07,21,06,26,10.20
2018,07,21,06,27,10.20
2018,07,21,06,28,10.20
2018,07,21,06,29,10.20
2018,07,21,06,30,10.20
2018,07,21,06,31,10.30
2018,07,21,06,32,10.30
2018,07,21,06,33,10.30
2018,07,21,06,34,10.30
2018,07,21,06,35,10.30
2018,07,21,06,36,10.30
2018,07,21,06,37,10.40
2018,07,21,06,38,10.40
2018,07,21,06,39,10.40
2018,07,21,06,40,10.40
2018,07,21,06,41,10.50
2018,07,21,06,42,10.60
2018,07,21,06,43,10.60
2018,07,21,06,44,10.60
2018,07,21,06,45,10.60
2018,07,21,06,46,10.70
2018,07,21,06,47,10.70
2018,07,21,06,48,10.70
2018,07,21,06,49,10.80
2018,07,21,06,50,10.80
2018,07,21,06,51,10.80
2018,07,21,06,52,10.90
2018,07,21,06,53,10.90
2018,07,21,06,54,10.90
2018,07,21,06,55,10.90
2018,07,21,06,56,11.00
2018,07,21,06,57,11.10
2018,07,21,06,58,11.10
2018,07,21,06,59,11.10
2018,07,21,07,00,11.20
2018,07,21,07,01,11.20
2018,07,21,07,02,11.30
2018,07,21,07,03,11.30
2018,07,21,07,04,11.40
2018,07,21,07,05,11.40
2018,07,21,07,06,11.50
2018,07,21,07,07,11.60
2018,07,21,07,08,11.70
2018,07,21,07,09,11.80
2018,07,21,07,10,11.90
2018,07,21,07,11,12.00
2018,07,21,07,12,12.10
2018,07,21,07,13,12.10
2018,07,21,07,14,12.20
2018,07,21,07,15,12.30
2018,07,21,07,16,12.30
2018,07,21,07,17,12.40
2018,07,21,07,18,12.40
2018,07,21,07,19,12.50
2018,07,21,07,20,12.60
2018,07,21,07,21,12.70
2018,07,21,07,22,12.80
2018,07,21,07,23,13.00
2018,07,21,07,24,13.10
2018,07,21,07,25,13.20
2018,07,21,07,26,13.30
2018,07,21,07,27,13.40
2018,07,21,07,28,13.50
2018,07,21,07,29,13.50
2018,07,21,07,30,13.60
2018,07,21,07,31,13.60
2018,07,21,07,32,13.70
2018,07,21,07,33,13.70
2018,07,21,07,34,13.80
2018,07,21,07,35,13.80
2018,07,21,07,36,13.90
2018,07,21,07,37,13.90
2018,07,21,07,38,14.00
2018,07,21,07,39,14.00
2018,07,21,07,40,14.10
2018,07,21,07,41,14.20
2018,07,21,07,42,14.20
2018,07,21,07,43,14.30
2018,07,21,07,44,14.40
2018,07,21,07,45,14.50
2018,07,21,07,46,14.60
2018,07,21,07,47,14.70
2018,07,21,07,48,14.70
2018,07,21,07,49,14.80
2018,07,21,07,50,14.90
2018,07,21,07,51,14.90
2018,07,21,07,52,15.00
2018,07,21,07,53,15.10
2018,07,21,07,54,15.20
2018,07,21,07,55,15.30
2018,07,21,07,56,15.30
2018,07,21,07,57,15.40
2018,07,21,07,58,15.50
2018,07,21,07,59,15.50
2018,07,21,08,00,15.60
2018,07,21,08,01,15.60
2018,07,21,08,02,15.70
2018,07,21,08,03,15.80
2018,07,21,08,04,15.80
2018,07,21,08,05,15.80
2018,07,21,08,06,15.90
2018,07,21,08,07,15.90
2018,07,21,08,08,16.00
2018,07,21,08,09,16.10
2018,07,21,08,10,16.10
2018,07,21,08,11,16.20
2018,07,21,08,12,16.20
2018,07,21,08,13,16.30
2018,07,21,08,14,16.30
2018,07,21,08,15,16.30
2018,07,21,08,16,16.20
2018,07,21,08,17,16.10
2018,07,21,08,18,16.00
2018,07,21,08,19,15.80
2018,07,21,08,20,15.60
2018,07,21,08,21,15.50
2018,07,21,08,22,15.40
2018,07,21,08,23,15.30
2018,07,21,08,24,15.30
2018,07,21,08,25,15.20
2018,07,21,08,26,15.10
2018,07,21,08,27,15.00
2018,07,21,08,28,15.00
2018,07,21,08,29,15.00
2018,07,21,08,30,14.90
2018,07,21,08,31,14.90
2018,07,21,08,32,14.90
2018,07,21,08,33,14.90
2018,07,21,08,34,14.90
2018,07,21,08,35,14.80
2018,07,21,08,36,14.80
2018,07,21,08,37,14.80
2018,07,21,08,38,14.80
2018,07,21,08,39,14.80
2018,07,21,08,40,14.80
2018,07,21,08,41,14.90
2018,07,21,08,42,14.90
2018,07,21,08,43,14.90
2018,07,21,08,44,15.00
2018,07,21,08,45,15.00
2018,07,21,08,46,15.00
2018,07,21,08,47,15.10
2018,07,21,08,48,15.10
2018,07,21,08,49,15.10
2018,07,21,08,50,15.20
2018,07,21,08,51,15.30
2018,07,21,08,52,15.30
2018,07,21,08,53,15.30
2018,07,21,08,54,15.30
2018,07,21,08,55,15.40
2018,07,21,08,56,15.40
2018,07,21,08,57,15.40
2018,07,21,08,58,15.50
2018,07,21,08,59,15.50
2018,07,21,09,00,15.60
2018,07,21,09,01,15.60
2018,07,21,09,02,15.60
2018,07,21,09,03,15.70
2018,07,21,09,04,15.70
2018,07,21,09,05,15.70
2018,07,21,09,06,15.80
2018,07,21,09,07,15.80
2018,07,21,09,08,15.80
2018,07,21,09,09,15.80
2018,07,21,09,10,15.80
2018,07,21,09,11,15.80
2018,07,21,09,12,15.90
2018,07,21,09,13,16.00
2018,07,21,09,14,16.10
2018,07,21,09,15,16.10
2018,07,21,09,16,16.20
2018,07,21,09,17,16.30
2018,07,21,09,18,16.40
2018,07,21,09,19,16.40
2018,07,21,09,20,16.50
2018,07,21,09,21,16.60
2018,07,21,09,22,16.70
2018,07,21,09,23,16.80
2018,07,21,09,24,16.90
2018,07,21,09,25,16.90
2018,07,21,09,26,17.00
2018,07,21,09,27,17.10
2018,07,21,09,28,17.00
2018,07,21,09,29,17.00
2018,07,21,09,30,17.00
2018,07,21,09,31,17.10
2018,07,21,09,32,17.10
2018,07,21,09,33,17.10
2018,07,21,09,34,17.10
2018,07,21,09,35,17.10
2018,07,21,09,36,17.10
2018,07,21,09,37,17.20
2018,07,21,09,38,17.20
2018,07,21,09,39,17.20
2018,07,21,09,40,17.20
2018,07,21,09,41,17.20
2018,07,21,09,42,17.20
2018,07,21,09,43,17.30
2018,07,21,09,44,17.30
2018,07,21,09,45,17.30
2018,07,21,09,46,17.30
2018,07,21,09,47,17.30
2018,07,21,09,48,17.30
2018,07,21,09,49,17.40
2018,07,21,09,50,17.30
2018,07,21,09,51,17.30
2018,07,21,09,52,17.10
2018,07,21,09,53,17.00
2018,07,21,09,54,17.00
2018,07,21,09,55,16.90
2018,07,21,09,56,17.00
2018,07,21,09,57,17.00
2018,07,21,09,58,16.90
2018,07,21,09,59,16.90
2018,07,21,10,00,16.80
2018,07,21,10,01,16.70
2018,07,21,10,02,16.60
2018,07,21,10,03,16.60
2018,07,21,10,04,16.50
2018,07,21,10,05,16.40
2018,07,21,10,06,16.30
2018,07,21,10,07,16.30
2018,07,21,10,08,16.30
2018,07,21,10,09,16.30
2018,07,21,10,10,16.30
2018,07,21,10,11,16.30
2018,07,21,10,12,16.30
2018,07,21,10,13,16.30
2018,07,21,10,14,16.20
2018,07,21,10,15,16.20
2018,07,21,10,16,16.20
2018,07,21,10,17,16.30
2018,07,21,10,18,16.30
2018,07,21,10,19,16.30
2018,07,21,10,20,16.40
2018,07,21,10,21,16.40
2018,07,21,10,22,16.40
2018,07,21,10,23,16.40
2018,07,21,10,24,16.40
2018,07,21,10,25,16.40
2018,07,21,10,26,16.40
2018,07,21,10,27,16.40
2018,07,21,10,28,16.40
2018,07,21,10,29,16.40
2018,07,21,10,30,16.40
2018,07,21,10,31,16.40
2018,07,21,10,32,16.40
2018,07,21,10,33,16.40
2018,07,21,10,34,16.40
2018,07,21,10,35,16.40
2018,07,21,10,36,16.40
2018,07,21,10,37,16.40
2018,07,21,10,38,16.40
2018,07,21,10,39,16.40
2018,07,21,10,40,16.40
2018,07,21,10,41,16.50
2018,07,21,10,42,16.60
2018,07,21,10,43,16.60
2018,07,21,10,44,16.70
2018,07,21,10,45,16.80
2018,07,21,10,46,16.90
2018,07,21,10,47,16.90
2018,07,21,10,48,16.90
2018,07,21,10,49,17.00
2018,07,21,10,50,17.00
2018,07,21,10,51,17.00
2018,07,21,10,52,17.00
2018,07,21,10,53,17.10
2018,07,21,10,54,17.00
2018,07,21,10,55,16.90
2018,07,21,10,56,16.90
2018,07,21,10,57,16.80
2018,07,21,10,58,16.70
2018,07,21,10,59,16.70
2018,07,21,11,00,16.70
2018,07,21,11,01,16.70
2018,07,21,11,02,16.70
2018,07,21,11,03,16.60
2018,07,21,11,04,16.50
2018,07,21,11,05,16.50
2018,07,21,11,06,16.60
2018,07,21,11,07,16.70
2018,07,21,11,08,16.80
2018,07,21,11,09,16.90
2018,07,21,11,10,16.80
2018,07,21,11,11,16.80
2018,07,21,11,12,16.80
2018,07,21,11,13,16.70
2018,07,21,11,14,16.70
2018,07,21,11,15,16.70
2018,07,21,11,16,16.80
2018,07,21,11,17,16.90
2018,07,21,11,18,16.80
2018,07,21,11,19,16.70
2018,07,21,11,20,16.70
2018,07,21,11,21,16.70
2018,07,21,11,22,16.80
2018,07,21,11,23,17.00
2018,07,21,11,24,17.00
2018,07,21,11,25,17.10
2018,07,21,11,26,17.20
2018,07,21,11,27,17.20
2018,07,21,11,28,17.30
2018,07,21,11,29,17.30
2018,07,21,11,30,17.40
2018,07,21,11,31,17.40
2018,07,21,11,32,17.50
2018,07,21,11,33,17.50
2018,07,21,11,34,17.60
2018,07,21,11,35,17.60
2018,07,21,11,36,17.50
2018,07,21,11,37,17.50
2018,07,21,11,38,17.40
2018,07,21,11,39,17.30
2018,07,21,11,40,17.30
2018,07,21,11,41,17.30
2018,07,21,11,42,17.40
2018,07,21,11,43,17.40
2018,07,21,11,44,17.40
2018,07,21,11,45,17.50
2018,07,21,11,46,17.60
2018,07,21,11,47,17.80
2018,07,21,11,48,17.90
2018,07,21,11,49,17.90
2018,07,21,11,50,17.80
2018,07,21,11,51,17.80
2018,07,21,11,52,17.90
2018,07,21,11,53,17.90
2018,07,21,11,54,17.80
2018,07,21,11,55,17.90
2018,07,21,11,56,17.90
2018,07,21,11,57,17.80
2018,07,21,11,58,17.90
2018,07,21,11,59,17.90
2018,07,21,12,00,17.90
2018,07,21,12,01,17.70
2018,07,21,12,02,17.60
2018,07,21,12,03,17.50
2018,07,21,12,04,17.50
2018,07,21,12,05,17.50
2018,07,21,12,06,17.60
2018,07,21,12,07,17.70
2018,07,21,12,08,17.80
2018,07,21,12,09,17.90
2018,07,21,12,10,17.90
2018,07,21,12,11,17.90
2018,07,21,12,12,18.10
2018,07,21,12,13,18.20
2018,07,21,12,14,18.20
2018,07,21,12,15,18.10
2018,07,21,12,16,18.10
2018,07,21,12,17,18.10
2018,07,21,12,18,18.10
2018,07,21,12,19,18.20
2018,07,21,12,20,18.20
2018,07,21,12,21,18.10
2018,07,21,12,22,18.10
2018,07,21,12,23,18.10
2018,07,21,12,24,18.10
2018,07,21,12,25,18.20
2018,07,21,12,26,18.20
2018,07,21,12,27,18.20
2018,07,21,12,28,18.20
2018,07,21,12,29,18.20
2018,07,21,12,30,18.20
2018,07,21,12,31,18.20
2018,07,21,12,32,18.20
2018,07,21,12,33,18.30
2018,07,21,12,34,18.30
2018,07,21,12,35,18.30
2018,07,21,12,36,18.40
2018,07,21,12,37,18.30
2018,07,21,12,38,18.30
2018,07,21,12,39,18.20
2018,07,21,12,40,18.20
2018,07,21,12,41,18.30
2018,07,21,12,42,18.20
2018,07,21,12,43,18.20
2018,07,21,12,44,18.20
2018,07,21,12,45,18.20
2018,07,21,12,46,18.10
2018,07,21,12,47,18.20
2018,07,21,12,48,18.10
2018,07,21,12,49,18.00
2018,07,21,12,50,17.90
2018,07,21,12,51,18.00
2018,07,21,12,52,18.10
2018,07,21,12,53,18.10
2018,07,21,12,54,18.10
2018,07,21,12,55,18.00
2018,07,21,12,56,17.90
2018,07,21,12,57,18.00
2018,07,21,12,58,18.10
2018,07,21,12,59,18.20
2018,07,21,13,00,18.40
2018,07,21,13,01,18.50
2018,07,21,13,02,18.60
2018,07,21,13,03,18.60
2018,07,21,13,04,18.40
2018,07,21,13,05,18.40
2018,07,21,13,06,18.40
2018,07,21,13,07,18.30
2018,07,21,13,08,18.30
2018,07,21,13,09,18.20
2018,07,21,13,10,18.20
2018,07,21,13,11,18.20
2018,07,21,13,12,18.20
2018,07,21,13,13,18.20
2018,07,21,13,14,18.20
2018,07,21,13,15,18.20
2018,07,21,13,16,18.10
2018,07,21,13,17,18.20
2018,07,21,13,18,18.00
2018,07,21,13,19,17.90
2018,07,21,13,20,17.80
2018,07,21,13,21,17.70
2018,07,21,13,22,17.80
2018,07,21,13,23,17.90
2018,07,21,13,24,17.90
2018,07,21,13,25,17.90
2018,07,21,13,26,18.00
2018,07,21,13,27,18.00
2018,07,21,13,28,17.90
2018,07,21,13,29,17.90
2018,07,21,13,30,17.90
2018,07,21,13,31,18.00
2018,07,21,13,32,18.10
2018,07,21,13,33,18.10
2018,07,21,13,34,18.10
2018,07,21,13,35,18.10
2018,07,21,13,36,18.10
2018,07,21,13,37,18.10
2018,07,21,13,38,18.20
2018,07,21,13,39,18.10
2018,07,21,13,40,18.10
2018,07,21,13,41,18.10
2018,07,21,13,42,18.10
2018,07,21,13,43,18.30
2018,07,21,13,44,18.30
2018,07,21,13,45,18.30
2018,07,21,13,46,18.20
2018,07,21,13,47,18.20
2018,07,21,13,48,18.30
2018,07,21,13,49,18.50
2018,07,21,13,50,18.60
2018,07,21,13,51,18.70
2018,07,21,13,52,18.70
2018,07,21,13,53,18.60
2018,07,21,13,54,18.50
2018,07,21,13,55,18.50
2018,07,21,13,56,18.50
2018,07,21,13,57,18.50
2018,07,21,13,58,18.50
2018,07,21,13,59,18.50
2018,07,21,14,00,18.60
2018,07,21,14,01,18.60
2018,07,21,14,02,18.70
2018,07,21,14,03,18.90
2018,07,21,14,04,18.90
2018,07,21,14,05,18.90
2018,07,21,14,06,18.90
2018,07,21,14,07,18.90
2018,07,21,14,08,18.90
2018,07,21,14,09,18.70
2018,07,21,14,10,18.60
2018,07,21,14,11,18.50
2018,07,21,14,12,18.30
2018,07,21,14,13,18.20
2018,07,21,14,14,18.20
2018,07,21,14,15,18.40
2018,07,21,14,16,18.50
2018,07,21,14,17,18.60
2018,07,21,14,18,18.60
2018,07,21,14,19,18.70
2018,07,21,14,20,18.70
2018,07,21,14,21,18.70
2018,07,21,14,22,18.70
2018,07,21,14,23,18.80
2018,07,21,14,24,18.80
2018,07,21,14,25,18.70
2018,07,21,14,26,18.70
2018,07,21,14,27,18.80
2018,07,21,14,28,18.90
2018,07,21,14,29,18.90
2018,07,21,14,30,18.90
2018,07,21,14,31,18.90
2018,07,21,14,32,18.90
2018,07,21,14,33,19.00
2018,07,21,14,34,19.10
2018,07,21,14,35,19.10
2018,07,21,14,36,19.10
2018,07,21,14,37,19.10
2018,07,21,14,38,18.90
2018,07,21,14,39,18.90
2018,07,21,14,40,18.90
2018,07,21,14,41,18.90
2018,07,21,14,42,18.90
2018,07,21,14,43,18.90
2018,07,21,14,44,18.90
2018,07,21,14,45,18.90
2018,07,21,14,46,18.90
2018,07,21,14,47,19.00
2018,07,21,14,48,19.10
2018,07,21,14,49,19.10
2018,07,21,14,50,19.10
2018,07,21,14,51,19.10
2018,07,21,14,52,19.10
2018,07,21,14,53,19.10
2018,07,21,14,54,19.00
2018,07,21,14,55,18.90
2018,07,21,14,56,18.90
2018,07,21,14,57,19.00
2018,07,21,14,58,19.10
2018,07,21,14,59,19.20
2018,07,21,15,00,19.30
2018,07,21,15,01,19.30
2018,07,21,15,02,19.20
2018,07,21,15,03,19.10
2018,07,21,15,04,19.10
2018,07,21,15,05,19.20
2018,07,21,15,06,19.40
2018,07,21,15,07,19.40
2018,07,21,15,08,19.50
2018,07,21,15,09,19.50
2018,07,21,15,10,19.50
2018,07,21,15,11,19.40
2018,07,21,15,12,19.40
2018,07,21,15,13,19.50
2018,07,21,15,14,19.60
2018,07,21,15,15,19.70
2018,07,21,15,16,19.70
2018,07,21,15,17,19.70
2018,07,21,15,18,19.80
2018,07,21,15,19,19.90
2018,07,21,15,20,19.90
2018,07,21,15,21,19.90
2018,07,21,15,22,19.90
2018,07,21,15,23,19.90
2018,07,21,15,24,19.90
2018,07,21,15,25,19.80
2018,07,21,15,26,19.80
2018,07,21,15,27,19.80
2018,07,21,15,28,19.80
2018,07,21,15,29,19.80
2018,07,21,15,30,19.80
2018,07,21,15,31,19.90
2018,07,21,15,32,19.90
2018,07,21,15,33,19.90
2018,07,21,15,34,20.00
2018,07,21,15,35,20.00
2018,07,21,15,36,19.90
2018,07,21,15,37,19.80
2018,07,21,15,38,19.80
2018,07,21,15,39,19.90
2018,07,21,15,40,19.80
2018,07,21,15,41,19.90
2018,07,21,15,42,20.00
2018,07,21,15,43,20.10
2018,07,21,15,44,20.00
2018,07,21,15,45,19.90
2018,07,21,15,46,19.80
2018,07,21,15,47,19.90
2018,07,21,15,48,19.80
2018,07,21,15,49,19.80
2018,07,21,15,50,20.00
2018,07,21,15,51,20.10
2018,07,21,15,52,20.20
2018,07,21,15,53,20.20
2018,07,21,15,54,20.00
2018,07,21,15,55,20.00
2018,07,21,15,56,20.10
2018,07,21,15,57,20.10
2018,07,21,15,58,20.20
2018,07,21,15,59,20.20
2018,07,21,16,00,20.20
2018,07,21,16,01,20.20
2018,07,21,16,02,20.20
2018,07,21,16,03,20.20
2018,07,21,16,04,20.20
2018,07,21,16,05,20.20
2018,07,21,16,06,20.20
2018,07,21,16,07,20.20
2018,07,21,16,08,20.20
2018,07,21,16,09,20.20
2018,07,21,16,10,20.20
2018,07,21,16,11,20.20
2018,07,21,16,12,20.20
2018,07,21,16,13,20.10
2018,07,21,16,14,20.10
2018,07,21,16,15,20.10
2018,07,21,16,16,20.10
2018,07,21,16,17,20.10
2018,07,21,16,18,20.20
2018,07,21,16,19,20.20
2018,07,21,16,20,20.30
2018,07,21,16,21,20.30
2018,07,21,16,22,20.20
2018,07,21,16,23,20.30
2018,07,21,16,24,20.40
2018,07,21,16,25,20.30
2018,07,21,16,26,20.40
2018,07,21,16,27,20.20
2018,07,21,16,28,20.00
2018,07,21,16,29,19.80
2018,07,21,16,30,19.70
2018,07,21,16,31,19.60
2018,07,21,16,32,19.60
2018,07,21,16,33,19.50
2018,07,21,16,34,19.50
2018,07,21,16,35,19.50
2018,07,21,16,36,19.40
2018,07,21,16,37,19.30
2018,07,21,16,38,19.40
2018,07,21,16,39,19.60
2018,07,21,16,40,19.80
2018,07,21,16,41,19.90
2018,07,21,16,42,20.00
2018,07,21,16,43,20.10
2018,07,21,16,44,20.10
2018,07,21,16,45,20.20
2018,07,21,16,46,20.10
2018,07,21,16,47,20.10
2018,07,21,16,48,20.10
2018,07,21,16,49,20.00
2018,07,21,16,50,19.90
2018,07,21,16,51,19.90
2018,07,21,16,52,19.90
2018,07,21,16,53,19.90
2018,07,21,16,54,19.90
2018,07,21,16,55,19.90
2018,07,21,16,56,19.90
2018,07,21,16,57,19.90
2018,07,21,16,58,19.90
2018,07,21,16,59,19.90
2018,07,21,17,00,19.90
2018,07,21,17,01,19.90
2018,07,21,17,02,19.90
2018,07,21,17,03,19.90
2018,07,21,17,04,19.90
2018,07,21,17,05,19.90
2018,07,21,17,06,19.90
2018,07,21,17,07,20.00
2018,07,21,17,08,20.00
2018,07,21,17,09,19.90
2018,07,21,17,10,19.90
2018,07,21,17,11,19.90
2018,07,21,17,12,19.80
2018,07,21,17,13,19.80
2018,07,21,17,14,19.80
2018,07,21,17,15,19.90
2018,07,21,17,16,20.10
2018,07,21,17,17,20.10
2018,07,21,17,18,20.10
2018,07,21,17,19,20.00
2018,07,21,17,20,19.90
2018,07,21,17,21,19.90